sat.trackr.live / text

‹ back to catalog

STARLINK-31389

NORAD 59013 · 2024-036R

PAYLOAD ACTIVE UNKNOWN

§ Identity

Operator
Country
US
Launch date
2024-02-23
Launch site
AFWTR
Launch vehicle
Mass (kg)
RCS (m²)

Purposes: comms

External: N2YO · Heavens-Above · Gunter

§ Orbital elements

Epoch: 2026-09-20T22:37:20.265024Z

Period
94.01 min
Inclination
53.1572°
Eccentricity
0.0000962
Mean motion
15.31698003 rev/d
Perigee alt
470.1 km
Apogee alt
471.4 km
Semi-major
6,848.9 km
B*
1.0693e-5
RAAN
250.7495°
Arg perigee
90.9303°
Mean anomaly
269.1809°
Rev number
14,523

§ Raw data

STARLINK-313891 59013U 24036R   26263.94259566 -.00000033  00000+0  10693-4 0  99972 59013  53.1572 250.7495 0000962  90.9303 269.1809 15.31698003145232

JSON: /api/v1/satellites/59013 · /tle

For live sub-satellite position, see the globe view (requires WebGL).

§ Visibility from observer

Set your observer location to see the next 7 days of passes ≥ 10°. The values pass through the URL so the page stays shareable.

No JS? Fill the form by hand. The geolocation button needs JavaScript.